Regional Weather Roundup
Issued by NWS

Home | Current Version | Previous Version | Graphics & Text | Print | Product List | Glossary On
Versions: 1 2 3 4 5 6 7 8 9 10 11 12 13 14 15 16 17 18 19 20 21 22 23 24 25 26 27 28 29 30 31 32 33 34 35 36 37 38 39 40 41 42 43 44 45 46 47 48 49 50
000
ASUS43 KMPX 182310
RWRMN
WEATHER ROUNDUP FOR MINNESOTA
NATIONAL WEATHER SERVICE TWIN CITIES/CHANHASSEN MN
600 PM CDT THU SEP 18 2014


NOTE: "FAIR" INDICATES FEW OR NO CLOUDS BELOW 12,000 FEET WITH NO
SIGNIFICANT WEATHER AND/OR OBSTRUCTIONS TO VISIBILITY. N/A MEANS
CURRENT SKY AND/OR WEATHER CONDITIONS ARE NOT AVAILABLE.

MNZ060>063-068>070-190000-
   Twin Cities Metro

CITY           SKY/WX    TMP DP  RH WIND       PRES   REMARKS
TWIN CITIES    MOSUNNY   73  51  46 S12       29.98F
ST PAUL        MOSUNNY   70  57  63 SE9       29.99F
CRYSTAL        MOSUNNY   74  51  44 S9        29.97F
BLAINE         MOSUNNY   72  55  56 SE8       29.98F
LAKEVILLE      SUNNY     72  52  49 S6        29.99F
SOUTH ST PAUL  MOSUNNY   72  56  56 SE6       29.99S
LAKE ELMO      FAIR      70  57  64 SE8       30.01S
$$
MNZ001>005-007-008-013>017-022>024-027-028-190000-
   Northwest Minnesota

CITY           SKY/WX    TMP DP  RH WIND       PRES   REMARKS
BEMIDJI        MOSUNNY   63  53  69 SE9       29.90S
HALLOCK        MOSUNNY   73  55  53 S21       29.74F
ROSEAU         SUNNY     68  55  64 SE16      29.81F
WARROAD        SUNNY     64  55  72 SE10      29.84F
THIEF RVR FALL SUNNY     72  55  56 S18       29.82S
CROOKSTON      SUNNY     73  57  56 S21G26    29.79F
FOSSTON        SUNNY     68  54  60 S17       29.86F
DETROIT LAKES  PTSUNNY   68  57  68 S12       29.89F
MOORHEAD       SUNNY     75  61  60 S15G21    29.82F
PARK RAPIDS    SUNNY     66  54  65 SE15      29.92F
MAHNOMEN       FAIR      68  56  64 S13G23    29.85F
$$
MNZ006-009>011-018-025>026-190000-
   North Central Minnesota

CITY           SKY/WX    TMP DP  RH WIND       PRES   REMARKS
BAUDETTE       SUNNY     64  52  64 SE7       29.86F
FLAG ISLAND    MOSUNNY   57  48  72 E6        29.84F
INTL FALLS     SUNNY     61  50  67 SE12      29.92F
WASKISH        SUNNY     64  54  68 SE10G18   29.88F
BIG FORK       SUNNY     63  52  67 SE10      29.95F
LONGVILLE      MOSUNNY   61  54  77 SE9       29.95F
GRAND RAPIDS   SUNNY     57  48  72 SE13      29.98F
CRANE LAKE     SUNNY     57  46  67 SE6       29.99F
ORR            SUNNY     61  46  59 SE9       29.95F
COOK           SUNNY     59  48  67 SE7       29.99F
WALKER         FAIR      61  52  72 S9        29.93F
$$
MNZ012-019>021-037-190000-
   Northeast Minnesota

CITY           SKY/WX    TMP DP  RH WIND       PRES   REMARKS
DULUTH         CLOUDY    47  42  83 E9        30.05F
ELY            SUNNY     52  41  66 SE9       30.03F
HIBBING        MOSUNNY   54  45  71 S8        30.01F
EVELETH        CLOUDY    52  45  76 S7        30.04F
DULUTH HARBOR  CLOUDY    50  46  87 NE15      30.08F
TWO HARBORS    CLOUDY    45  37  76 E7        30.06F
SILVER BAY     SUNNY     43  39  87 NE7       30.07F
GRAND MARAIS     N/A     46  36  68 E9        30.12F
G MARAIS ARPRT PTSUNNY   39  32  75 SE3       30.10S
$$
MNZ029>031-032-039>041-046>048-054>057-064-190000-
   West Central Minnesota

CITY           SKY/WX    TMP DP  RH WIND       PRES   REMARKS
FERGUS FALLS   SUNNY     73  52  46 S16       29.87F
WHEATON        SUNNY     73  57  56 S9        29.88S
MORRIS         SUNNY     73  55  53 S13       29.89S
ALEXANDRIA     SUNNY     72  55  55 S15       29.94F
ELBOW LAKE     FAIR      72  56  58 S15       29.89S
WADENA         SUNNY     68  55  64 SE9       29.92F
GLENWOOD       SUNNY     73  55  53 SE14      29.94F
APPLETON       MOSUNNY   75  55  50 S8G17     29.89F
BENSON         SUNNY     73  55  53 S12G18    29.91F
ORTONVILLE     MOSUNNY   75  55  50 S10       29.88F
MADISON        SUNNY     79  55  44 S13       29.90S
WILLMAR        FAIR      75  50  41 S7        29.95S
$$
MNZ033>034-036-042>043-049>051-058-059-190000-
   Central Minnesota

CITY           SKY/WX    TMP DP  RH WIND       PRES   REMARKS
ST CLOUD       SUNNY     74  56  53 S10       29.96F
SAUK CENTRE    FAIR      73  54  51 S13       29.95S
PAYNESVILLE    MOSUNNY   70  50  49 E9        29.95F
AITKIN         SUNNY     64  54  68 SE7       29.98F
PINE RIVER     SUNNY     61  54  77 SE10      29.98F
BRAINERD       SUNNY     61  54  77 VRB7      29.97F
STAPLES        SUNNY     66  55  68 SE7       29.93F
LONG PRAIRIE   FAIR      70  55  60 SE12      29.95F
LITTLE FALLS   SUNNY     68  54  60 SE7       29.96F
LITCHFIELD     SUNNY     73  52  46 SE8       29.96F
BUFFALO        SUNNY     73  51  46 SE7       29.98F
MAPLE LAKE     SUNNY     73  55  54 SE5       29.98S
$$
MNZ037-044-045-052-053-190000-
   East Central Minnesota

CITY           SKY/WX    TMP DP  RH WIND       PRES   REMARKS
PRINCETON      SUNNY     72  57  60 E7        29.98F
MORA           SUNNY     64  54  68 SE3       30.01F
CAMBRIDGE      SUNNY     72  55  56 SE6       29.98S
RUSH CITY      SUNNY     66  57  71 CALM      30.01S
MOOSE LAKE     SUNNY     59  52  77 E3        30.01F
HINCKLEY       FAIR      64  55  72 E7        30.01F
CLOQUET        CLOUDY    48  45  87 E7        30.04F
MCGREGOR       SUNNY     59  52  77 SE10      30.01F
$$
MNZ071>073-080-081-089-090-097-098-190000-
   Southwest Minnesota

CITY           SKY/WX    TMP DP  RH WIND       PRES   REMARKS
MONTEVIDEO     MOSUNNY   75  54  46 S10       29.92F
GRANITE FALLS  MOSUNNY   73  53  49 SE12      29.94S
CANBY          MOSUNNY   73  55  53 S9        29.92S
MARSHALL       MOSUNNY   73  52  46 S14       29.93S
REDWOOD FALLS  SUNNY     75  50  41 S14       29.94F
OLIVIA         SUNNY     73  50  43 S9        29.94F
PIPESTONE      MOSUNNY   73  54  49 S12G17    29.94S
WINDOM         SUNNY     73  48  40 S7        29.97S
WORTHINGTON    SUNNY     72  48  43 S12       29.97S
JACKSON        SUNNY     72  46  40 S10       29.98S
TRACY          MOSUNNY   74  54  49 S8        29.95S
SLAYTON        MOSUNNY   70  51  50 SE5       29.96S
$$
MNZ065>067-074>077-082>085-091>093-190000-
   South Central Minnesota

CITY           SKY/WX    TMP DP  RH WIND       PRES   REMARKS
MANKATO        SUNNY     73  48  40 S10       29.98S
NEW ULM        SUNNY     73  52  46 S8G16     29.96F
ST JAMES       SUNNY     73  46  38 SE9       29.98S
FAIRMONT       SUNNY     72  43  35 S12G17    29.98F
GLENCOE        SUNNY     75  49  39 SE7       29.97S
FARIBAULT      SUNNY     75  46  35 S7        30.00S
OWATONNA       SUNNY     72  52  49 SE7       30.00F
WASECA         SUNNY     72  46  40 SE8       30.01F
ALBERT LEA     SUNNY     72  52  49 S7        30.01S
$$
MNZ078>079-086>088-094>096-190000-
   Southeast Minnesota

CITY           SKY/WX    TMP DP  RH WIND       PRES   REMARKS
ROCHESTER      SUNNY     70  52  52 S9        30.04F
RED WING       SUNNY     72  55  56 SE12      30.01S
STANTON        MOSUNNY   73  52  46 S7        29.99S
DODGE CENTER   SUNNY     70  54  56 S9        30.02F
WINONA         SUNNY     68  59  73 SE9       30.05S
AUSTIN         SUNNY     70  52  52 S7        30.02S
PRESTON        SUNNY     68  58  71 SE8       30.04F
$$
ABBREVIATIONS USED IN REMARKS
   TC - TEMPERATURES IN CELSIUS
  WCI - WIND CHILL INDEX
   HX - HEAT INDEX
  VSB - VISIBILITY
$$


USA.gov is the U.S. government's official web portal to all federal, state and local government web resources and services.